• In Denmark
  • List of Countries
  • For 7 days
  • Water Temperature
  • Satellite Maps
  • Weather Map
  • Weather Widgets
  • user-avatar
    Login

    Hourly Weather Zagora

    Today, 19 October, Friday

    Time Temperature Precipitation Wind Pressure Humidity
    00:00 +13°C° 0 mm 2 mps 750 mmHg 76%
    01:00 +12°C° 0 mm 2 mps 750 mmHg 78%
    02:00 +12°C° 0 mm 2 mps 750 mmHg 80%
    03:00 +12°C° 0 mm 2 mps 750 mmHg 81%
    04:00 +10°C° 0 mm 2 mps 750 mmHg 83%
    05:00 +10°C° 0 mm 2 mps 750 mmHg 85%
    06:00 +10°C° 0 mm 2 mps 751 mmHg 86%
    07:00 +9°C° 0 mm 2 mps 751 mmHg 87%
    08:00 +12°C° 0 mm 2 mps 751 mmHg 81%
    09:00 +14°C° 0 mm 2 mps 751 mmHg 75%
    10:00 +15°C° 0 mm 2 mps 752 mmHg 69%
    11:00 +16°C° 0 mm 3 mps 751 mmHg 66%
    12:00 +17°C° 0 mm 3 mps 751 mmHg 63%
    13:00 +18°C° 0 mm 3 mps 751 mmHg 60%
    14:00 +17°C° 0 mm 3 mps 751 mmHg 63%
    15:00 +17°C° 0 mm 3 mps 751 mmHg 66%
    16:00 +16°C° 0 mm 3 mps 751 mmHg 68%
    17:00 +16°C° 0 mm 2 mps 751 mmHg 72%
    18:00 +15°C° 0 mm 2 mps 752 mmHg 76%
    19:00 +14°C° 0 mm 2 mps 752 mmHg 80%
    20:00 +14°C° 0 mm 2 mps 752 mmHg 80%
    21:00 +14°C° 0 mm 1 mps 752 mmHg 81%
    22:00 +13°C° 0 mm 1 mps 753 mmHg 81%
    23:00 +13°C° 0 mm 1 mps 753 mmHg 81%

    Tomorrow, 20 October, Saturday

    Time Temperature Precipitation Wind Pressure Humidity
    00:00 +13°C° 0 mm 1 mps 753 mmHg 80%
    01:00 +13°C° 0 mm 1 mps 753 mmHg 80%
    02:00 +13°C° 0 mm 1 mps 753 mmHg 80%
    03:00 +13°C° 0 mm 1 mps 753 mmHg 79%
    04:00 +12°C° 0 mm 1 mps 753 mmHg 79%
    05:00 +12°C° 0 mm 1 mps 753 mmHg 79%
    06:00 +12°C° 0 mm 1 mps 753 mmHg 79%
    07:00 +12°C° 0 mm 2 mps 754 mmHg 79%
    08:00 +13°C° 0 mm 2 mps 754 mmHg 77%
    09:00 +12°C° 0 mm 3 mps 754 mmHg 74%
    10:00 +12°C° 0 mm 3 mps 754 mmHg 72%
    11:00 +13°C° 0 mm 4 mps 754 mmHg 67%
    12:00 +13°C° 0 mm 4 mps 754 mmHg 62%
    13:00 +13°C° 0 mm 4 mps 754 mmHg 57%
    14:00 +13°C° 0 mm 4 mps 754 mmHg 57%
    15:00 +12°C° 0 mm 4 mps 754 mmHg 57%
    16:00 +12°C° 0 mm 4 mps 754 mmHg 57%
    17:00 +11°C° 0 mm 4 mps 754 mmHg 60%
    18:00 +10°C° 0 mm 4 mps 754 mmHg 63%
    19:00 +9°C° 0 mm 3 mps 754 mmHg 67%
    20:00 +9°C° 0 mm 3 mps 754 mmHg 69%
    21:00 +8°C° 0 mm 3 mps 754 mmHg 71%
    22:00 +8°C° 0 mm 3 mps 755 mmHg 73%
    23:00 +8°C° 0 mm 3 mps 754 mmHg 74%

    Day after tomorrow, 21 October, Sunday

    Time Temperature Precipitation Wind Pressure Humidity
    00:00 +8°C° 0 mm 3 mps 754 mmHg 76%
    01:00 +7°C° 0 mm 3 mps 754 mmHg 77%
    02:00 +7°C° 0 mm 3 mps 754 mmHg 81%
    03:00 +5°C° 0 mm 3 mps 754 mmHg 86%
    04:00 +5°C° 0 mm 3 mps 754 mmHg 90%
    05:00 +5°C° 0 mm 3 mps 754 mmHg 90%
    06:00 +5°C° 0 mm 3 mps 754 mmHg 90%
    07:00 +7°C° 0 mm 3 mps 754 mmHg 90%
    08:00 +8°C° 0 mm 3 mps 754 mmHg 85%
    09:00 +9°C° 0 mm 3 mps 754 mmHg 79%
    10:00 +10°C° 0 mm 3 mps 754 mmHg 74%
    11:00 +11°C° 0 mm 3 mps 754 mmHg 71%
    12:00 +11°C° 0 mm 3 mps 754 mmHg 67%
    13:00 +12°C° 0 mm 3 mps 754 mmHg 64%
    14:00 +12°C° 0 mm 3 mps 754 mmHg 65%
    15:00 +12°C° 0 mm 2 mps 754 mmHg 66%
    16:00 +12°C° 0 mm 2 mps 754 mmHg 68%
    17:00 +12°C° 0 mm 2 mps 754 mmHg 71%
    18:00 +10°C° 0 mm 2 mps 754 mmHg 74%
    19:00 +10°C° 0 mm 1 mps 754 mmHg 76%
    20:00 +10°C° 0 mm 1 mps 754 mmHg 78%
    21:00 +9°C° 0 mm 1 mps 754 mmHg 80%
    22:00 +9°C° 0 mm 1 mps 754 mmHg 81%
    23:00 +8°C° 0 mm 1 mps 754 mmHg 83%

    22 October, Monday

    Time Temperature Precipitation Wind Pressure Humidity
    00:00 +8°C° 0 mm 1 mps 754 mmHg 84%
    01:00 +7°C° 0 mm 1 mps 754 mmHg 86%
    02:00 +7°C° 0 mm 1 mps 754 mmHg 87%
    03:00 +7°C° 0 mm 1 mps 754 mmHg 88%
    04:00 +7°C° 0 mm 1 mps 754 mmHg 89%
    05:00 +6°C° 0 mm 1 mps 754 mmHg 89%
    06:00 +6°C° 0 mm 1 mps 754 mmHg 90%
    07:00 +6°C° 0 mm 1 mps 754 mmHg 90%
    08:00 +7°C° 0 mm 2 mps 754 mmHg 82%
    09:00 +9°C° 0 mm 2 mps 754 mmHg 75%
    10:00 +10°C° 0 mm 2 mps 753 mmHg 67%
    11:00 +11°C° 0 mm 3 mps 753 mmHg 63%
    12:00 +12°C° 0 mm 3 mps 752 mmHg 58%
    13:00 +13°C° 0 mm 3 mps 752 mmHg 54%
    14:00 +12°C° 0.1 mm 3 mps 752 mmHg 58%
    15:00 +11°C° 0.1 mm 3 mps 752 mmHg 62%
    16:00 +11°C° 0.1 mm 3 mps 751 mmHg 66%
    17:00 +10°C° 0.6 mm 4 mps 751 mmHg 73%
    18:00 +8°C° 0.6 mm 4 mps 751 mmHg 79%
    19:00 +7°C° 0.6 mm 5 mps 752 mmHg 86%
    20:00 +7°C° 0.8 mm 5 mps 752 mmHg 84%
    21:00 +7°C° 0.8 mm 5 mps 752 mmHg 81%
    22:00 +7°C° 0.8 mm 5 mps 752 mmHg 79%
    23:00 +7°C° 0.1 mm 5 mps 752 mmHg 79%

    23 October, Tuesday

    Time Temperature Precipitation Wind Pressure Humidity
    00:00 +6°C° 0.1 mm 4 mps 752 mmHg 80%
    01:00 +6°C° 0.1 mm 4 mps 751 mmHg 80%
    02:00 +5°C° 0 mm 4 mps 751 mmHg 81%
    03:00 +5°C° 0 mm 4 mps 751 mmHg 83%
    04:00 +4°C° 0 mm 4 mps 751 mmHg 84%
    05:00 +4°C° 0 mm 4 mps 751 mmHg 86%
    06:00 +3°C° 0 mm 3 mps 751 mmHg 87%
    07:00 +3°C° 0 mm 3 mps 751 mmHg 88%
    08:00 +4°C° 0 mm 4 mps 751 mmHg 83%
    09:00 +5°C° 0 mm 4 mps 751 mmHg 77%
    10:00 +7°C° 0 mm 5 mps 751 mmHg 71%
    11:00 +7°C° 0 mm 5 mps 750 mmHg 68%
    12:00 +8°C° 0 mm 5 mps 750 mmHg 64%
    13:00 +8°C° 0 mm 5 mps 749 mmHg 61%
    14:00 +8°C° 0.1 mm 5 mps 749 mmHg 65%
    15:00 +8°C° 0.1 mm 5 mps 749 mmHg 69%
    16:00 +7°C° 0.1 mm 5 mps 748 mmHg 73%
    17:00 +7°C° 0.1 mm 5 mps 748 mmHg 76%
    18:00 +7°C° 0.1 mm 5 mps 748 mmHg 79%
    19:00 +7°C° 0.1 mm 5 mps 748 mmHg 82%
    20:00 +7°C° 0 mm 5 mps 748 mmHg 84%
    21:00 +7°C° 0 mm 5 mps 748 mmHg 86%
    22:00 +6°C° 0 mm 5 mps 748 mmHg 88%
    23:00 +5°C° 0.1 mm 6 mps 747 mmHg 88%

    24 October, Wednesday

    Time Temperature Precipitation Wind Pressure Humidity
    00:00 +7°C° 0.1 mm 6 mps 746 mmHg 88%
    01:00 +7°C° 0.1 mm 6 mps 745 mmHg 89%
    02:00 +6°C° 0.8 mm 7 mps 744 mmHg 88%
    03:00 +6°C° 0.8 mm 7 mps 743 mmHg 88%
    04:00 +7°C° 0.8 mm 8 mps 742 mmHg 88%
    05:00 +7°C° 1.1 mm 8 mps 742 mmHg 88%
    06:00 +9°C° 1.1 mm 8 mps 741 mmHg 89%
    07:00 +9°C° 1.1 mm 8 mps 740 mmHg 90%
    08:00 +10°C° 0.7 mm 8 mps 740 mmHg 89%
    09:00 +11°C° 0.7 mm 9 mps 739 mmHg 88%
    10:00 +11°C° 0.7 mm 9 mps 739 mmHg 87%
    11:00 +11°C° 0.2 mm 9 mps 739 mmHg 85%
    12:00 +12°C° 0.2 mm 9 mps 739 mmHg 82%
    13:00 +12°C° 0.2 mm 9 mps 738 mmHg 80%
    14:00 +12°C° 0.2 mm 9 mps 739 mmHg 78%
    15:00 +12°C° 0.2 mm 9 mps 739 mmHg 77%
    16:00 +12°C° 0.2 mm 9 mps 739 mmHg 75%
    17:00 +11°C° 0.1 mm 9 mps 739 mmHg 74%
    18:00 +11°C° 0.1 mm 9 mps 740 mmHg 73%
    19:00 +10°C° 0.1 mm 9 mps 740 mmHg 72%
    20:00 +10°C° 0.1 mm 8 mps 741 mmHg 72%
    21:00 +10°C° 0.1 mm 8 mps 741 mmHg 72%
    22:00 +10°C° 0.1 mm 7 mps 742 mmHg 72%
    23:00 +9°C° 0 mm 7 mps 742 mmHg 72%
    Show more